User: anonymous   Login
Location: Alando
(42.3054°N, 9.2895°E)
Time: 12:24:25
(UTC+00:00)
Language:

Mayak - Orbit

View from above orbital plane
View from above orbital plane
View from above satellite
View from above satellite

Ground track
Ground track

The orbit data is extracted from the following two-line orbital elements,

1 42830U 17042F   20191.08825536  .00000632  00000-0  67081-4 0  9998
2 42830  97.5253  73.3477 0013267 201.3273 158.7396 14.92256957162589
Epoch (UTC): 09 July 2020 02:07:05
Eccentricity: 0.0013267
inclination: 97.5253°
perigee height: 581 km
apogee height: 600 km
right ascension of ascending node: 73.3477°
argument of perigee: 201.3273°
revolutions per day: 14.92256957
mean anomaly at epoch: 158.7396°
orbit number at epoch: 16258

The dashed part of the orbit path shows where the satellite is in the earth's shadow,  

DLR